Terminal Aerodrome Forecast
Issued by NWS Sterling, VA

Home | Current Version | Previous Version | Text Only | Print | Product List | Glossary On
Versions: 1 2 3 4 5 6 7 8 9 10 11 12 13
000
FTUS41 KLWX 302340
TAFCHO
TAF
KCHO 302340Z 3100/3124 20006KT P6SM OVC110
     FM311400 VRB04KT P6SM BKN080
     FM312000 VRB03KT P6SM SCT050
     FM312300 VRB03KT P6SM BKN050=

USA.gov is the U.S. government's official web portal to all federal, state and local government web resources and services.